DW5963 Weather Reports


Display with metric or nautical units.
time (UTC)temp
F
wind
direction
speed
MPH
gust
MPH
rain 1hr
in
rain 24hr
in
rain mn
in
humidity
%
barometer
mb
20260506171045 47 360 8.0 0.0 0.00 0.00 0.00 31 1019.8
20260506170545 47 360 7.0 0.0 0.00 0.00 0.00 34 1019.8
20260506165542 47 360 7.0 0.0 0.00 0.00 0.00 34 1019.9
20260506165041 47 360 7.0 0.0 0.00 0.00 0.00 35 1020.0
20260506164547 46 360 7.0 0.0 0.00 0.00 0.00 34 1020.1
20260506164039 46 360 7.0 0.0 0.00 0.00 0.00 35 1020.1
20260506163539 46 360 6.0 0.0 0.00 0.00 0.00 36 1020.2
20260506163055 45 360 6.0 0.0 0.00 0.00 0.00 37 1020.3
20260506162538 45 360 5.0 0.0 0.00 0.00 0.00 37 1020.4
20260506162037 45 360 5.0 0.0 0.00 0.00 0.00 39 1020.4
20260506161537 45 360 5.0 0.0 0.00 0.00 0.00 41 1020.4
20260506161037 44 360 4.0 0.0 0.00 0.00 0.00 42 1020.5
20260506160535 45 360 3.0 0.0 0.00 0.00 0.00 42 1020.4
20260506155535 43 360 5.0 0.0 0.00 0.00 0.00 43 1020.6
20260506155038 44 360 6.0 0.0 0.00 0.00 0.00 43 1020.7
20260506154538 44 360 6.0 0.0 0.00 0.00 0.00 44 1020.8
20260506154033 44 360 7.0 0.0 0.00 0.00 0.00 44 1020.8
20260506153534 44 360 6.0 0.0 0.00 0.00 0.00 44 1020.8
20260506153033 43 360 5.0 0.0 0.00 0.00 0.00 46 1021.0
20260506152531 43 360 5.0 0.0 0.00 0.00 0.00 46 1021.0
20260506152031 42 360 4.0 0.0 0.00 0.00 0.00 47 1021.1
20260506151538 42 360 3.0 0.0 0.00 0.00 0.00 46 1021.2
20260506151029 42 360 4.0 0.0 0.00 0.00 0.00 47 1021.2
20260506150528 42 360 5.0 0.0 0.00 0.00 0.00 47 1021.3
20260506145528 41 360 5.0 0.0 0.00 0.00 0.00 48 1021.3
20260506145025 41 360 4.0 0.0 0.00 0.00 0.00 48 1021.4
20260506144526 40 360 4.0 0.0 0.00 0.00 0.00 49 1021.4
20260506144025 40 360 5.0 0.0 0.00 0.00 0.00 49 1021.5
20260506143523 40 360 5.0 0.0 0.00 0.00 0.00 51 1021.4
20260506143022 39 360 4.0 0.0 0.00 0.00 0.00 51 1021.5
20260506142524 38 360 5.0 0.0 0.00 0.00 0.00 51 1021.5
20260506142021 38 360 5.0 0.0 0.00 0.00 0.00 51 1021.6
20260506141518 38 360 4.0 0.0 0.00 0.00 0.00 51 1021.6
20260506141020 37 360 4.0 0.0 0.00 0.00 0.00 52 1021.7
20260506140516 37 360 4.0 0.0 0.00 0.00 0.00 53 1021.7
20260506135518 36 360 5.0 0.0 0.00 0.00 0.00 54 1021.7
20260506135014 35 360 5.0 0.0 0.00 0.00 0.00 55 1021.8
20260506134511 35 360 5.0 0.0 0.00 0.00 0.00 56 1021.7
20260506134016 34 360 5.0 0.0 0.00 0.00 0.00 57 1021.7
20260506133508 34 360 5.0 0.0 0.00 0.00 0.00 58 1021.7
20260506133007 33 360 4.0 0.0 0.00 0.00 0.00 59 1021.8
20260506132510 32 360 4.0 0.0 0.00 0.00 0.00 61 1021.8
20260506132005 31 360 4.0 0.0 0.00 0.00 0.00 62 1021.8
20260506131504 31 360 4.0 0.0 0.00 0.00 0.00 64 1021.9
20260506131005 30 360 4.0 0.0 0.00 0.00 0.00 66 1021.9
20260506130503 29 360 4.0 0.0 0.00 0.00 0.00 67 1021.8
20260506125600 27 360 3.0 0.0 0.00 0.00 0.00 72 1021.7
20260506125059 27 360 2.0 0.0 0.00 0.00 0.00 73 1021.7
20260506124601 26 360 2.0 0.0 0.00 0.00 0.00 74 1021.7
20260506124057 25 360 2.0 0.0 0.00 0.00 0.00 76 1021.7
20260506123556 24 360 2.0 0.0 0.00 0.00 0.00 77 1021.6
20260506123111 22 360 1.0 0.0 0.00 0.00 0.00 78 1021.6
20260506122555 21 360 1.0 0.0 0.00 0.00 0.00 78 1021.6
20260506122054 20 360 0.0 0.0 0.00 0.00 0.00 77 1021.5
20260506121610 19 360 0.0 0.0 0.00 0.00 0.00 77 1021.5
20260506121054 19 360 1.0 0.0 0.00 0.00 0.00 76 1021.4
20260506120553 19 360 1.0 0.0 0.00 0.00 0.00 76 1021.3
20260506115552 18 360 1.0 0.0 0.00 0.00 0.00 76 1021.1
20260506115051 18 360 2.0 0.0 0.00 0.00 0.00 77 1021.1
20260506114552 18 360 1.0 0.0 0.00 0.00 0.00 77 1021.1
20260506114051 18 360 0.0 0.0 0.00 0.00 0.00 77 1021.0
20260506113551 17 360 0.0 0.0 0.00 0.00 0.00 77 1021.0
20260506113050 17 360 1.0 0.0 0.00 0.00 0.00 77 1020.9
20260506112550 17 360 1.0 0.0 0.00 0.00 0.00 77 1020.8
20260506112049 17 360 2.0 0.0 0.00 0.00 0.00 78 1020.8
20260506111549 16 360 1.0 0.0 0.00 0.00 0.00 77 1020.8
20260506111050 16 360 1.0 0.0 0.00 0.00 0.00 77 1020.8
20260506110549 16 360 1.0 0.0 0.00 0.00 0.00 77 1020.8
20260506105549 16 360 0.0 0.0 0.00 0.00 0.00 76 1020.7
20260506105049 16 360 0.0 0.0 0.00 0.00 0.00 76 1020.8
20260506104549 16 360 1.0 0.0 0.00 0.00 0.00 76 1020.7
20260506104048 16 360 1.0 0.0 0.00 0.00 0.00 75 1020.7
20260506103546 16 360 1.0 0.0 0.00 0.00 0.00 74 1020.7
20260506103046 16 360 1.0 0.0 0.00 0.00 0.00 74 1020.6
20260506102545 17 360 2.0 0.0 0.00 0.00 0.00 74 1020.6
20260506102046 18 360 2.0 0.0 0.00 0.00 0.00 74 1020.7
20260506101551 18 360 2.0 0.0 0.00 0.00 0.00 75 1020.6
20260506101044 18 360 1.0 0.0 0.00 0.00 0.00 75 1020.6
20260506100546 18 360 1.0 0.0 0.00 0.00 0.00 75 1020.5
20260506095547 17 360 1.0 0.0 0.00 0.00 0.00 75 1020.7
20260506095044 17 360 0.0 0.0 0.00 0.00 0.00 74 1020.6
20260506094543 17 360 1.0 0.0 0.00 0.00 0.00 74 1020.6
20260506094043 17 360 2.0 0.0 0.00 0.00 0.00 75 1020.7
20260506093545 17 360 1.0 0.0 0.00 0.00 0.00 74 1020.6
20260506093044 17 360 1.0 0.0 0.00 0.00 0.00 74 1020.5
20260506092542 17 360 2.0 0.0 0.00 0.00 0.00 73 1020.6
20260506092041 17 360 2.0 0.0 0.00 0.00 0.00 74 1020.6
20260506091541 17 360 2.0 0.0 0.00 0.00 0.00 72 1020.6
20260506091040 17 360 2.0 0.0 0.00 0.00 0.00 72 1020.5
20260506090540 17 360 1.0 0.0 0.00 0.00 0.00 72 1020.6
20260506085537 18 360 1.0 0.0 0.00 0.00 0.00 72 1020.4
20260506085037 18 360 1.0 0.0 0.00 0.00 0.00 72 1020.4
20260506084543 18 360 1.0 0.0 0.00 0.00 0.00 71 1020.4
20260506084036 18 360 2.0 0.0 0.00 0.00 0.00 70 1020.4
20260506083537 18 360 2.0 0.0 0.00 0.00 0.00 69 1020.4
20260506083035 19 360 2.0 0.0 0.00 0.00 0.00 69 1020.4
20260506082533 19 360 2.0 0.0 0.00 0.00 0.00 69 1020.4
20260506082032 19 360 2.0 0.0 0.00 0.00 0.00 69 1020.5
20260506081535 19 360 2.0 0.0 0.00 0.00 0.00 67 1020.4
20260506081030 20 360 2.0 0.0 0.00 0.00 0.00 67 1020.4
20260506080530 20 360 2.0 0.0 0.00 0.00 0.00 66 1020.4
20260506073529 22 360 0.0 0.0 0.00 0.00 0.00 65 1020.3
20260506073026 22 360 0.0 0.0 0.00 0.00 0.00 66 1020.4
20260506072525 21 360 0.0 0.0 0.00 0.00 0.00 63 1020.3
20260506072024 21 360 0.0 0.0 0.00 0.00 0.00 61 1020.3
20260506071523 23 360 0.0 0.0 0.00 0.00 0.00 60 1020.3
20260506071022 24 360 0.0 0.0 0.00 0.00 0.00 61 1020.3
20260506070524 24 360 0.0 0.0 0.00 0.00 0.00 61 1020.3
20260506062517 23 360 0.0 0.0 0.00 0.00 0.00 64 1020.1
20260506062016 23 360 0.0 0.0 0.00 0.00 0.00 64 1020.1
20260506061517 23 360 0.0 0.0 0.00 0.00 0.00 63 1020.0
20260506061019 23 360 0.0 0.0 0.00 0.00 0.00 63 1020.0
20260506060515 23 360 0.0 0.0 0.00 0.00 0.00 63 1020.1
20260506051013 22 360 2.0 0.0 0.00 0.00 0.00 63 1019.6
20260506050512 22 360 2.0 0.0 0.00 0.00 0.00 62 1019.6
20260506045010 23 360 2.0 0.0 0.00 0.00 0.00 59 1019.6
20260506044515 23 360 2.0 0.0 0.00 0.00 0.00 59 1019.5
20260506044007 24 360 2.0 0.0 0.00 0.00 0.00 58 1019.6
20260506043506 24 360 2.0 0.0 0.00 0.00 0.00 58 1019.7
20260506043006 25 360 2.0 0.0 0.00 0.00 0.00 58 1019.6
20260506042506 25 360 2.0 0.0 0.00 0.00 0.00 58 1019.5
20260506042004 25 360 2.0 0.0 0.00 0.00 0.00 57 1019.7
20260506041504 25 360 2.0 0.0 0.00 0.00 0.00 58 1019.5
20260506041003 25 360 2.0 0.0 0.00 0.00 0.00 57 1019.5
20260506040503 25 360 2.0 0.0 0.00 0.00 0.00 56 1019.5
20260506035504 26 360 2.0 0.0 0.00 0.00 0.00 55 1019.4
20260506035103 26 360 3.0 0.0 0.00 0.00 0.00 54 1019.5
20260506034602 27 360 3.0 0.0 0.00 0.00 0.00 54 1019.5
20260506034057 27 360 3.0 0.0 0.00 0.00 0.00 53 1019.5
20260506033556 28 360 2.0 0.0 0.00 0.00 0.00 52 1019.4
20260506033055 28 360 2.0 0.0 0.00 0.00 0.00 51 1019.4
20260506032554 29 360 2.0 0.0 0.00 0.00 0.00 50 1019.3
20260506032053 30 360 2.0 0.0 0.00 0.00 0.00 49 1019.2
20260506031552 31 360 2.0 0.0 0.00 0.00 0.00 49 1019.1
20260506031053 31 360 2.0 0.0 0.00 0.00 0.00 49 1019.1
20260506030552 31 360 3.0 0.0 0.00 0.00 0.00 50 1019.1
20260506030155 30 360 3.0 0.0 0.00 0.00 0.00 50 1018.9
20260506025553 30 360 3.0 0.0 0.00 0.00 0.00 48 1019.0
20260506025051 31 360 2.0 0.0 0.00 0.00 0.00 46 1018.9
20260506024548 33 360 2.0 0.0 0.00 0.00 0.00 45 1018.7
20260506024048 34 360 3.0 0.0 0.00 0.00 0.00 44 1018.6
20260506023546 35 360 4.0 0.0 0.00 0.00 0.00 42 1018.6
20260506023058 36 360 4.0 0.0 0.00 0.00 0.00 42 1018.5
20260506022545 37 360 3.0 0.0 0.00 0.00 0.00 41 1018.5
20260506022048 38 360 3.0 0.0 0.00 0.00 0.00 39 1018.4
20260506021545 39 360 4.0 0.0 0.00 0.00 0.00 38 1018.5
20260506021047 40 360 4.0 0.0 0.00 0.00 0.00 38 1018.4
20260506020544 41 360 5.0 0.0 0.00 0.00 0.00 37 1018.4
20260506020144 42 360 6.0 0.0 0.00 0.00 0.00 36 1018.4
20260506015545 42 360 7.0 0.0 0.00 0.00 0.00 36 1018.4
20260506015044 43 360 8.0 0.0 0.00 0.00 0.00 35 1018.3
20260506014544 43 360 9.0 0.0 0.00 0.00 0.00 35 1018.3
20260506014043 43 360 8.0 0.0 0.00 0.00 0.00 35 1018.2
20260506013543 44 360 9.0 0.0 0.00 0.00 0.00 34 1018.2
20260506013052 44 360 10.0 0.0 0.00 0.00 0.00 34 1018.2
20260506012546 44 360 11.0 0.0 0.00 0.00 0.00 33 1018.1
20260506012046 45 360 11.0 0.0 0.00 0.00 0.00 33 1018.1
20260506011546 45 360 11.0 0.0 0.00 0.00 0.00 33 1018.1
20260506011046 45 360 12.0 0.0 0.00 0.00 0.00 33 1018.1
20260506010543 45 360 12.0 0.0 0.00 0.00 0.00 33 1018.1
20260506010143 45 360 11.0 0.0 0.00 0.00 0.00 32 1018.0
20260506005543 45 360 10.0 0.0 0.00 0.00 0.00 32 1018.0
20260506005046 45 360 10.0 0.0 0.00 0.00 0.00 33 1018.0
20260506004544 45 360 10.0 0.0 0.00 0.00 0.00 32 1017.9
20260506004043 45 360 10.0 0.0 0.00 0.00 0.00 32 1017.8
20260506003544 46 360 10.0 0.0 0.00 0.00 0.00 33 1017.8
20260506003042 46 360 12.0 0.0 0.00 0.00 0.00 32 1017.7
20260506002542 46 360 12.0 0.0 0.00 0.00 0.00 32 1017.7
20260506002042 46 360 11.0 0.0 0.00 0.00 0.00 33 1017.8
20260506001547 46 360 11.0 0.0 0.00 0.00 0.00 33 1017.7
20260506001042 46 360 11.0 0.0 0.00 0.00 0.00 34 1017.9
20260506000545 46 360 11.0 0.0 0.00 0.00 0.00 34 1017.9
20260506000143 46 360 11.0 0.0 0.00 0.00 0.00 34 1017.9
20260505235541 46 360 10.0 0.0 0.00 0.00 0.00 34 1017.9
20260505235041 46 360 9.0 0.0 0.00 0.00 0.00 35 1017.9
20260505234541 45 360 11.0 0.0 0.00 0.00 0.00 35 1017.9
20260505234041 45 360 12.0 0.0 0.00 0.00 0.00 35 1017.9
20260505233543 46 360 11.0 0.0 0.00 0.00 0.00 35 1017.9
20260505233041 46 360 10.0 0.0 0.00 0.00 0.00 35 1017.8
20260505232541 46 360 11.0 0.0 0.00 0.00 0.00 34 1017.9
20260505232040 46 360 13.0 0.0 0.00 0.00 0.00 34 1017.8
20260505231541 46 360 14.0 0.0 0.00 0.00 0.00 34 1017.9
20260505231040 46 360 14.0 0.0 0.00 0.00 0.00 35 1017.8
20260505230540 46 360 14.0 0.0 0.00 0.00 0.00 35 1017.8
20260505230140 46 360 13.0 0.0 0.00 0.00 0.00 34 1017.8
20260505225540 46 360 13.0 0.0 0.00 0.00 0.00 34 1017.8
20260505225040 47 360 13.0 0.0 0.00 0.00 0.00 35 1017.8
20260505224540 46 360 13.0 0.0 0.00 0.00 0.00 34 1017.8
20260505224039 46 360 13.0 0.0 0.00 0.00 0.00 33 1017.8
20260505223539 47 360 14.0 0.0 0.00 0.00 0.00 34 1017.7
20260505223043 48 360 15.0 0.0 0.00 0.00 0.00 31 1017.7
20260505222539 49 360 14.0 0.0 0.00 0.00 0.00 31 1017.8
20260505222043 49 360 15.0 0.0 0.00 0.00 0.00 31 1017.7
20260505221545 49 360 14.0 0.0 0.00 0.00 0.00 32 1017.8
20260505221038 47 360 13.0 0.0 0.00 0.00 0.00 33 1017.7
20260505220539 47 360 14.0 0.0 0.00 0.00 0.00 33 1017.6
20260505220138 49 360 14.0 0.0 0.00 0.00 0.00 32 1017.7
20260505215538 49 360 14.0 0.0 0.00 0.00 0.00 32 1017.7
20260505215037 48 360 13.0 0.0 0.00 0.00 0.00 32 1017.7
20260505214537 47 360 14.0 0.0 0.00 0.00 0.00 34 1017.7
20260505214036 46 360 15.0 0.0 0.00 0.00 0.00 34 1017.7
20260505213536 47 360 14.0 0.0 0.00 0.00 0.00 32 1017.7
20260505213036 46 360 14.0 0.0 0.00 0.00 0.00 34 1017.7
20260505212536 47 360 15.0 0.0 0.00 0.00 0.00 33 1017.7
20260505212036 47 360 14.0 0.0 0.00 0.00 0.00 32 1017.8
20260505211535 47 360 12.0 0.0 0.00 0.00 0.00 34 1017.7
20260505211035 46 360 13.0 0.0 0.00 0.00 0.00 33 1017.9
20260505210535 46 360 15.0 0.0 0.00 0.00 0.00 34 1018.1
20260505210133 45 360 15.0 0.0 0.00 0.00 0.00 34 1018.1
20260505205535 45 360 15.0 0.0 0.00 0.00 0.00 34 1018.2
20260505205032 45 360 14.0 0.0 0.00 0.00 0.00 35 1018.1
20260505204633 45 360 14.0 0.0 0.00 0.00 0.00 34 1018.2
20260505204033 45 360 14.0 0.0 0.00 0.00 0.00 34 1018.3
20260505203656 45 360 13.0 0.0 0.00 0.00 0.00 34 1018.2
20260505203031 46 360 13.0 0.0 0.00 0.00 0.00 35 1018.3
20260505202531 45 360 14.0 0.0 0.00 0.00 0.00 35 1018.3
20260505202031 45 360 14.0 0.0 0.00 0.00 0.00 34 1018.3
20260505201530 45 360 13.0 0.0 0.00 0.00 0.00 35 1018.2
20260505201030 45 360 14.0 0.0 0.00 0.00 0.00 35 1018.3
20260505200531 45 360 14.0 0.0 0.00 0.00 0.00 35 1018.2
20260505200130 45 360 13.0 0.0 0.00 0.00 0.00 35 1018.2
20260505195530 45 360 12.0 0.0 0.00 0.00 0.00 35 1018.2
20260505195030 44 360 12.0 0.0 0.00 0.00 0.00 35 1018.3
20260505194530 45 360 12.0 0.0 0.00 0.00 0.00 35 1018.3
20260505194030 45 360 13.0 0.0 0.00 0.00 0.00 35 1018.3
20260505193530 45 360 13.0 0.0 0.00 0.00 0.00 35 1018.2
20260505193031 44 360 13.0 0.0 0.00 0.00 0.00 36 1018.2
20260505192531 44 360 13.0 0.0 0.00 0.00 0.00 35 1018.2
20260505192030 44 360 14.0 0.0 0.00 0.00 0.00 36 1018.2
20260505191530 44 360 13.0 0.0 0.00 0.00 0.00 36 1018.2
20260505191028 44 360 13.0 0.0 0.00 0.00 0.00 36 1018.2
20260505190528 44 360 13.0 0.0 0.00 0.00 0.00 35 1018.2
20260505190131 44 360 13.0 0.0 0.00 0.00 0.00 36 1018.3
20260505185528 44 360 14.0 0.0 0.00 0.00 0.00 36 1018.3
20260505185030 44 360 14.0 0.0 0.00 0.00 0.00 36 1018.3
20260505184529 44 360 14.0 0.0 0.00 0.00 0.00 36 1018.2
20260505184028 44 360 13.0 0.0 0.00 0.00 0.00 36 1018.2
20260505183530 43 360 13.0 0.0 0.00 0.00 0.00 36 1018.2
20260505183034 43 360 14.0 0.0 0.00 0.00 0.00 37 1018.2
20260505182527 43 360 14.0 0.0 0.00 0.00 0.00 37 1018.2
20260505182027 43 360 14.0 0.0 0.00 0.00 0.00 36 1018.2
20260505181527 43 360 13.0 0.0 0.00 0.00 0.00 36 1018.2
20260505181027 44 360 13.0 0.0 0.00 0.00 0.00 36 1018.1
20260505180527 43 360 14.0 0.0 0.00 0.00 0.00 36 1018.1
20260505180128 44 360 14.0 0.0 0.00 0.00 0.00 35 1018.2
20260505175526 44 360 14.0 0.0 0.00 0.00 0.00 36 1018.2
20260505175026 44 360 14.0 0.0 0.00 0.00 0.00 36 1018.2
20260505174526 43 360 13.0 0.0 0.00 0.00 0.00 36 1018.2
20260505174027 43 360 14.0 0.0 0.00 0.00 0.00 35 1018.1
20260505173526 44 360 15.0 0.0 0.00 0.00 0.00 36 1018.3
20260505173026 43 360 14.0 0.0 0.00 0.00 0.00 36 1018.2
20260505172525 44 360 13.0 0.0 0.00 0.00 0.00 35 1018.3
20260505172025 43 360 15.0 0.0 0.00 0.00 0.00 37 1018.3
20260505171524 43 360 15.0 0.0 0.00 0.00 0.00 35 1018.4